Regional Weather Roundup
Issued by NWS

Home | Current Version | Previous Version | Graphics & Text | Print | Product List | Glossary On
Versions: 1 2 3 4 5 6 7 8 9 10 11 12 13 14 15 16 17 18 19 20 21 22 23 24 25 26 27 28 29 30 31 32 33 34 35 36 37 38 39 40 41 42 43 44 45 46 47 48 49 50
000
ASUS43 KTOP 281208
RWRKS

WEATHER ROUNDUP FOR KANSAS
NATIONAL WEATHER SERVICE GOODLAND KS
700 AM CDT THU MAY 28 2015

NOTE:  "FAIR" INDICATES FEW OR NO CLOUDS BELOW 12,000 FEET WITH NO
SIGNIFICANT WEATHER AND/OR OBSTRUCTIONS TO VISIBILITY.

KSZ001>006-013>018-027>032-041>047-281300-
NORTHWEST KANSAS

CITY           SKY/WX    TMP DP  RH WIND       PRES   REMARKS
GOODLAND       CLOUDY    59  58  96 SW18G25   30.00F
6HR MIN TEMP:  54; 6HR MAX TEMP:  59;

HAYS           CLOUDY    57  50  77 E8        30.00S
HILL CITY      CLOUDY    57  54  89 NE3       30.01F
6HR MIN TEMP:  57; 6HR MAX TEMP:  64;

RUSSELL        CLOUDY    59  57  93 E8        29.99F
6HR MIN TEMP:  57; 6HR MAX TEMP:  65; 6HR PCP: TRACE;

$$

KSZ061>065-074>080-084>089-281300-
SOUTHWEST KANSAS

CITY           SKY/WX    TMP DP  RH WIND       PRES   REMARKS
DODGE CITY     CLOUDY    61  54  77 S12G22    29.95F
6HR MIN TEMP:  60; 6HR MAX TEMP:  62; 6HR PCP:  0.05;

ELKHART          N/A     58  54  87 SE14        N/A
GARDEN CITY    CLOUDY    58  55  90 S9        30.00F
6HR MIN TEMP:  56; 6HR MAX TEMP:  59; 6HR PCP:  0.25;

GREAT BEND     CLOUDY    61  55  82 E9        29.98F
LIBERAL        CLOUDY    63  52  67 SE10      30.06R
PRATT          CLOUDY    63  55  77 SE6       30.00R
$$

KSZ066>073-081>083-090>101-281300-
SOUTHEAST KANSAS

CITY           SKY/WX    TMP DP  RH WIND       PRES   REMARKS
CHANUTE        CLOUDY    65  64  97 SE3       30.08R
6HR MIN TEMP:  64; 6HR MAX TEMP:  70; 6HR PCP:  0.09;

COFFEYVILLE    CLOUDY    67  65  93 E5        30.07S
6HR MIN TEMP:  67; 6HR MAX TEMP:  70; 6HR PCP: TRACE;

HUTCHINSON     CLOUDY    64  61  90 E7        30.03F
6HR MIN TEMP:  61; 6HR MAX TEMP:  66; 6HR PCP:  0.69;

MEDICINE LODGE   N/A     64  62  93 E10       30.01R
NEWTON         CLOUDY    63  57  82 E5        30.07S
PARSONS        CLOUDY    67  65  93 VRB3      30.08F
6HR MIN TEMP:  67; 6HR MAX TEMP:  70; 6HR PCP: TRACE;

WICHITA INTL   CLOUDY    65  61  87 E5        30.05R
6HR MIN TEMP:  63; 6HR MAX TEMP:  72; 6HR PCP:  0.51;

WICHITA JABRA  CLOUDY    63  62  97 E5        30.05R
6HR MIN TEMP:  63; 6HR MAX TEMP:  71; 6HR PCP:  0.40;

WICHITA MCCONL CLOUDY    65  63  92 E6        30.05R
WINFIELD       CLOUDY    65  64  97 CALM      30.05R
6HR MIN TEMP:  63; 6HR MAX TEMP:  66; 6HR PCP:  0.21;

$$

KSZ007>012-019>026-033>040-048>060-102>105-281300-
NORTHEAST KANSAS

CITY           SKY/WX    TMP DP  RH WIND       PRES   REMARKS
CONCORDIA      LGT RAIN  62  61  96 SE7       30.02F
6HR MIN TEMP:  62; 6HR MAX TEMP:  69; 6HR PCP:  0.04;

EMPORIA        CLOUDY    64  63  96 E7        30.07F
6HR MIN TEMP:  63; 6HR MAX TEMP:  68; 6HR PCP:  0.35;

LAWRENCE       LGT RAIN  64  61  90 CALM      30.10F FOG
6HR MIN TEMP:  63; 6HR MAX TEMP:  67; 6HR PCP:  0.24;

MANHATTAN      RAIN      63  63 100 E9        30.05F FOG
6HR MIN TEMP:  63; 6HR MAX TEMP:  71; 6HR PCP:  0.84;

MARYSVILLE     RAIN      63  61  94 S7        30.08R
OLATHE IND     LGT RAIN  64  62  93 W8        30.11F
6HR MIN TEMP:  64; 6HR MAX TEMP:  69; 6HR PCP:  0.06;

OLATHE EXE     TSTM      65  61  87 NW8       30.11R
6HR MIN TEMP:  65; 6HR MAX TEMP:  69; 6HR PCP:  0.01;

SALINA         CLOUDY    64  61  90 SE12      30.04S
6HR MIN TEMP:  63; 6HR MAX TEMP:  66; 6HR PCP:  0.61;

TOPEKA BILLARD RAIN      64  63  96 CALM      30.10F FOG
6HR MIN TEMP:  64; 6HR MAX TEMP:  69; 6HR PCP:  0.26;

TOPEKA FORBES  LGT RAIN  65  62  90 NE3       30.08F FOG
6HR MIN TEMP:  65; 6HR MAX TEMP:  69; 6HR PCP:  0.38;

$$


USA.gov is the U.S. government's official web portal to all federal, state and local government web resources and services.